Location: Heppenheim
(49.6410°N, 8.6370°E)
Time: 16:39:52
(UTC+02:00)

ISS - Pass Details

Date: 09 May 2026
Orbit: 414 x 424 km, 51.6° (Epoch: 10 May)

Event Time Altitude Azimuth Distance (km) Brightness Sun altitude
Exits shadow 04:57:14 - 259° (W) 1,628 -1.3 -7.9°
Reaches altitude 10° 04:57:51 10° 251° (WSW) 1,496 -1.6 -7.8°
Maximum altitude 04:59:21 13° 224° (SW) 1,351 -1.8 -7.7°
Drops below altitude 10° 05:00:51 10° 197° (SSW) 1,494 -1.5 -7.5°
Sets 05:03:53 0° 167° (SSE) 2,355 -0.2 -7.1°
